Voltar ao catálogo

STARLINK-34156

AtivoComunicaçõesVLEO
NORAD 64108·PAYLOAD·🇺🇸 United States

Lançado May 23, 2025 de Vandenberg Space Force Base

Loading…

Próximas Passagens (próximas 24 horas)

TLE

AtualizadoSource: CelesTrak SupGP

Época: Sep 15, 2026, 02:30 UTC

1 64108C 25110N   26258.10465278 -.00049480  00000+0 -15910-2 0  2586
2 64108  53.1593 225.5041 0001509  92.7281 249.3313 15.31729487    13

Acompanhe STARLINK-34156 em tempo real com AllMySat

Download on the App Store